Find Starlink 34023

NORAD ID: 63875 Int'l Des: 2025-094 Owner: SPXS Country: US Constellation: starlink operational
LEOCIRCULAR

Live-Position

3D-Globus wird geladen...

Über Starlink 34023

Beschreibung wird geladen...

Nächste Überflüge

Passes for default location (London). Set your location on the main map for personalized predictions.

Höhenverlauf

Loading altitude history...

Zweizeiliger Elementsatz

1 63875U 25094M 26106.79981575 -.00001716 00000-0 -13598-3 0 9991
2 63875 70.0009 138.2895 0003588 274.6731 85.4019 14.98341916 52917
Epoch: 16. Apr. 2026 • Age: 17 hours

Aktueller Status

Höhe 578.2 km
Geschwindigkeit 7.57 km/s
Subsatellitenpunkt -19.46°S, 63.43°W
Startdatum 10. Mai 2025
Alter 0.9 years
Typ internet

Technische Details

Klassifizierung Payload
Masse 575.00 kg
Trockenmasse 530.00 kg
Gesamtmasse 575.00 kg
Länge 0.30 m
Durchmesser 4.10 m
Spannweite 29.00 m
Form Box + pan
Hersteller SPXS
Bus-Typ Starlink V2MO
Phasenstatus In Orbit
Besitzer/Staat SPXS/US

Most Searched